CW1172 Weather Reports


time (UTC)temp
F
wind
direction
speed
knots
gust
knots
rain 1hr
in
rain 24hr
in
rain mn
in
humidity
%
barometer
mb
20260507220051 37 128 0.0 0.0 0.00 0.00 0.00 69 1019.6
20260507214601 38 128 0.0 0.0 0.00 0.00 0.00 69 1019.6
20260507213149 38 129 0.0 0.0 0.00 0.00 0.00 67 1019.5
20260507211545 39 128 0.0 0.0 0.00 0.00 0.00 66 1019.4
20260507210051 39 360 0.0 0.0 0.00 0.00 0.00 64 1019.3
20260507204555 40 240 0.0 0.0 0.00 0.00 0.00 63 1019.1
20260507203142 41 241 0.0 0.0 0.00 0.00 0.00 61 1019.0
20260507201541 42 242 0.0 0.0 0.00 0.00 0.00 59 1019.0
20260507200039 44 242 0.0 0.0 0.00 0.00 0.00 56 1019.0
20260507194537 45 360 0.0 0.0 0.00 0.00 0.00 53 1018.8
20260507193135 48 240 0.0 0.0 0.00 0.00 0.00 49 1018.5
20260507191547 49 241 0.0 0.0 0.00 0.00 0.00 46 1018.4
20260507190046 50 240 0.0 0.0 0.00 0.00 0.00 41 1018.1
20260507184544 51 241 0.0 0.0 0.00 0.00 0.00 39 1017.8
20260507183143 52 267 0.0 0.0 0.00 0.00 0.00 39 1017.6
20260507181530 53 290 0.0 0.0 0.00 0.00 0.00 38 1017.7
20260507180033 54 300 0.0 0.0 0.00 0.00 0.00 34 1017.5
20260507174534 54 302 0.0 0.0 0.00 0.00 0.00 36 1017.4
20260507173129 56 288 0.0 0.0 0.00 0.00 0.00 33 1017.4
20260507171526 58 360 0.0 0.0 0.00 0.00 0.00 33 1017.3
20260507170025 59 231 0.0 0.0 0.00 0.00 0.00 33 1017.2
20260507164525 60 286 0.0 0.0 0.00 0.00 0.00 30 1017.1
20260507163125 60 232 0.0 0.0 0.00 0.00 0.00 29 1016.9
20260507161524 61 304 0.0 0.0 0.00 0.00 0.00 28 1017.0
20260507160023 61 279 0.0 0.0 0.00 0.00 0.00 30 1016.9
20260507154523 61 289 0.0 0.0 0.00 0.00 0.00 28 1017.0
20260507153121 61 300 0.0 0.0 0.00 0.00 0.00 31 1016.8
20260507151526 59 360 0.0 0.0 0.00 0.00 0.00 30 1016.6
20260507150027 59 223 0.0 0.0 0.00 0.00 0.00 30 1016.6
20260507144524 59 302 0.0 0.0 0.00 0.00 0.00 29 1016.6
20260507143127 59 360 0.0 0.0 0.00 0.00 0.00 29 1016.5
20260507141519 58 296 0.0 0.0 0.00 0.00 0.00 29 1016.5
20260507140020 59 360 0.0 0.0 0.00 0.00 0.00 30 1016.6
20260507134520 59 305 0.0 0.0 0.00 0.00 0.00 32 1016.4
20260507133116 60 329 0.0 0.0 0.00 0.00 0.00 29 1016.3
20260507131519 60 271 0.0 0.0 0.00 0.00 0.00 28 1016.4
20260507130015 61 360 0.0 0.0 0.00 0.00 0.00 29 1016.3
20260507124521 61 265 0.0 0.0 0.00 0.00 0.00 29 1016.2
20260507123113 61 290 0.0 0.0 0.00 0.00 0.00 30 1016.1
20260507121514 60 309 0.0 0.0 0.00 0.00 0.00 29 1016.0
20260507120013 61 360 0.0 0.0 0.00 0.00 0.00 31 1016.1
20260507114514 61 305 0.0 0.0 0.00 0.00 0.00 32 1016.1
20260507113111 61 219 0.0 0.0 0.00 0.00 0.00 31 1015.9
20260507111511 60 360 0.0 0.0 0.00 0.00 0.00 33 1016.0
20260507110008 59 350 0.0 0.0 0.00 0.00 0.00 33 1016.0
20260507104506 59 360 0.0 0.0 0.00 0.00 0.00 34 1016.0
20260507103105 59 267 0.0 0.0 0.00 0.00 0.00 34 1015.9
20260507101504 59 90 0.0 0.0 0.00 0.00 0.00 35 1015.7
20260507100005 59 335 0.0 0.0 0.00 0.00 0.00 31 1015.7
20260507094501 59 360 0.0 0.0 0.00 0.00 0.00 32 1015.5
20260507093103 58 283 0.0 0.0 0.00 0.00 0.00 34 1015.3
20260507091606 58 278 0.0 0.0 0.00 0.00 0.00 38 1015.2
20260507090056 57 311 0.0 0.0 0.00 0.00 0.00 44 1015.2
20260507084557 56 264 0.0 0.0 0.00 0.00 0.00 49 1015.3
20260507083056 56 222 0.0 0.0 0.00 0.00 0.00 53 1015.1
20260507081550 55 126 0.0 0.0 0.00 0.00 0.00 54 1015.2
20260507080113 54 360 0.0 0.0 0.00 0.00 0.00 58 1015.1
20260507074547 54 321 0.0 0.0 0.00 0.00 0.00 61 1015.1
20260507073050 53 272 0.0 0.0 0.00 0.00 0.00 66 1015.0
20260507071559 53 360 0.0 0.0 0.00 0.00 0.00 65 1014.9
20260507070043 51 205 0.0 0.0 0.00 0.00 0.00 66 1014.8
20260507064545 51 195 0.0 0.0 0.00 0.00 0.00 68 1014.6
20260507063039 48 126 0.0 0.0 0.00 0.00 0.00 71 1014.5
20260507061537 47 126 0.0 0.0 0.00 0.00 0.00 73 1014.5
20260507060033 44 126 0.0 0.0 0.00 0.00 0.00 81 1014.5
20260507054528 41 127 0.0 0.0 0.00 0.00 0.00 83 1014.3
20260507053027 38 126 0.0 0.0 0.00 0.00 0.00 89 1014.1
20260507051518 37 126 0.0 0.0 0.00 0.00 0.00 89 1014.0
20260507050016 34 126 0.0 0.0 0.00 0.00 0.00 89 1014.0
20260507044514 33 125 0.0 0.0 0.00 0.00 0.00 88 1013.9
20260507043014 32 127 0.0 0.0 0.00 0.00 0.00 88 1013.7
20260507041518 31 127 0.0 0.0 0.00 0.00 0.00 88 1013.7
20260507040017 31 126 0.0 0.0 0.00 0.00 0.00 87 1013.5
20260507034519 31 126 0.0 0.0 0.00 0.00 0.00 87 1013.4
20260507033016 30 128 0.0 0.0 0.00 0.00 0.00 87 1013.4
20260507031512 30 126 0.0 0.0 0.00 0.00 0.00 87 1013.3
20260507030012 30 125 0.0 0.0 0.00 0.00 0.00 87 1013.2
20260507024511 30 126 0.0 0.0 0.00 0.00 0.00 86 1013.3
20260507023010 30 128 0.0 0.0 0.00 0.00 0.00 86 1013.1
20260507021514 30 128 0.0 0.0 0.00 0.00 0.00 86 1013.1
20260507020009 31 126 0.0 0.0 0.00 0.00 0.00 85 1013.0
20260507014508 31 126 0.0 0.0 0.00 0.00 0.00 85 1013.0
20260507013006 31 126 0.0 0.0 0.00 0.00 0.00 84 1013.0
20260507011504 31 126 0.0 0.0 0.00 0.00 0.00 84 1012.8
20260507010003 31 140 0.0 0.0 0.00 0.00 0.00 84 1012.9
20260507004501 32 141 0.0 0.0 0.00 0.00 0.00 83 1012.8
20260507003100 32 140 0.0 0.0 0.00 0.00 0.00 83 1012.6
20260507001616 32 141 0.0 0.0 0.00 0.00 0.00 82 1012.8
20260506234559 33 260 0.0 0.0 0.00 0.00 0.00 81 1012.5
20260506233054 33 260 0.0 0.0 0.00 0.00 0.00 80 1012.6
20260506231553 34 360 0.0 0.0 0.00 0.00 0.00 79 1012.5
20260506230052 34 360 0.0 0.0 0.00 0.00 0.00 78 1012.4
20260506224549 35 260 0.0 0.0 0.00 0.00 0.00 77 1012.4
20260506223045 36 360 0.0 0.0 0.00 0.00 0.00 76 1012.4
20260506221545 36 259 0.0 0.0 0.00 0.00 0.00 74 1012.2